Regional Weather Roundup
Issued by NWS

Home | Current Version | Previous Version | Graphics & Text | Print | Product List | Glossary On
Versions: 1 2 3 4 5 6 7 8 9 10 11 12 13 14 15 16 17 18 19 20 21 22 23 24 25 26 27 28 29 30 31 32 33 34 35 36 37 38 39 40 41 42 43 44 45 46 47 48 49 50
000
ASUS43 KMPX 120610
RWRMN
WEATHER ROUNDUP FOR MINNESOTA
NATIONAL WEATHER SERVICE TWIN CITIES/CHANHASSEN MN
1200 AM CST TUE DEC 12 2017


NOTE: "FAIR" INDICATES FEW OR NO CLOUDS BELOW 12,000 FEET WITH NO
SIGNIFICANT WEATHER AND/OR OBSTRUCTIONS TO VISIBILITY. N/A MEANS
CURRENT SKY AND/OR WEATHER CONDITIONS ARE NOT AVAILABLE.

MNZ060>063-068>070-120700-
   Twin Cities Metro

CITY           SKY/WX    TMP DP  RH WIND       PRES   REMARKS
TWIN CITIES    CLEAR     16  10  77 NW14G24   30.23R WCI   2
6HR MIN TEMP:  16; 6HR MAX TEMP:  27;

ST PAUL        CLEAR     16   9  74 NW15      30.24R WCI   1
CRYSTAL        CLEAR     14   5  67 NW14      30.23R WCI  -1
BLAINE         CLEAR     16   9  73 NW13G18   30.22S WCI   2
LAKEVILLE      CLEAR     14  10  85 NW14      30.21S WCI  -1
EDEN PRAIRIE   CLEAR     15   8  73 NW10G22   30.23R WCI   2
6HR MIN TEMP:  15; 6HR MAX TEMP:  27;

SOUTH ST PAUL  CLEAR     17  10  72 NW12G20   30.22R WCI   4
LAKE ELMO      FAIR      18  10  73 NW7       30.22R WCI   8
$$
MNZ001>005-007-008-013>017-022>024-027-028-120700-
   Northwest Minnesota

CITY           SKY/WX    TMP DP  RH WIND       PRES   REMARKS
BEMIDJI        CLOUDY    -2  -4  87 W6        30.23F WCI -14
HALLOCK        CLOUDY     3   1  92 SW6       30.27F WCI  -8
ROSEAU         CLOUDY    -2  -8  78 SW5       30.24F WCI -12
WARROAD        CLOUDY    -6  -9  84 SW5       30.23F WCI -17
THIEF RVR FALL CLOUDY    -1  -4  87 W6        30.28F WCI -13
CROOKSTON      CLOUDY     1   0  92 S3        30.31F
FOSSTON        CLOUDY    -6  -9  84 CALM      30.26F
DETROIT LAKES  CLOUDY     3   1  92 NW5       30.27S WCI  -6
MOORHEAD       CLOUDY     7   1  78 CALM      30.32F
PARK RAPIDS    CLEAR      1  -4  79 NW8       30.23S WCI -13
MAHNOMEN       FAIR      -2  -6  85 SW3       30.27S
$$
MNZ006-009>011-018-025>026-120700-
   North Central Minnesota

CITY           SKY/WX    TMP DP  RH WIND       PRES   REMARKS
BAUDETTE       PTCLDY    -1  -4  87 W5        30.21F WCI -11
FLAG ISLAND    CLOUDY     1  -2  85 NW5       30.22S WCI  -8
INTL FALLS     CLOUDY    -1  -5  82 W7        30.19F WCI -14
6HR MIN TEMP:  -1; 6HR MAX TEMP:  11;

WASKISH        CLOUDY     1  -2  85 W6        30.23F WCI -10
LONGVILLE      CLOUDY     3   0  85 NW7       30.22S WCI  -9
GRAND RAPIDS   PTCLDY     3  -1  83 NW12      30.20F WCI -13
CRANE LAKE     CLOUDY     3  -2  78 NW8       30.19F WCI -10
ORR            CLOUDY     3  -2  78 NW10      30.14F WCI -12
COOK           CLOUDY     5   0  78 NW7       30.16S HAZE    WCI  -7
WALKER         FAIR       1  -3  85 W5        30.23S WCI  -9
$$
MNZ012-019>021-037-120700-
   Northeast Minnesota

CITY           SKY/WX    TMP DP  RH WIND       PRES   REMARKS
DULUTH         CLEAR      6   0  76 N14G21    30.11S WCI -11
6HR MIN TEMP:   6; 6HR MAX TEMP:  15; 6HR PCP: TRACE;

ELY            PTCLDY     3  -2  78 NW9       30.11S WCI -11
HIBBING        CLOUDY     4  -1  80 NW17      30.16R WCI -16
EVELETH        CLOUDY     5  -2  72 N8G16     30.14F HAZE    WCI  -8
DULUTH HARBOR  PTCLDY    12   3  67 NW10G23   30.21R WCI  -1
TWO HARBORS    CLEAR     10   1  67 NW5       30.11S WCI   2
SILVER BAY     CLEAR      9   0  66 CALM      30.10R
GRAND MARAIS     N/A      9  -3  58 CALM      30.14R
G MARAIS ARPRT PTCLDY     1  -8  66 NW14G26   30.00S WCI -17
$$
MNZ029>031-032-039>041-046>048-054>057-064-120700-
   West Central Minnesota

CITY           SKY/WX    TMP DP  RH WIND       PRES   REMARKS
FERGUS FALLS   CLOUDY     3   0  85 NW6       30.34S WCI  -8
WHEATON        CLOUDY     9   5  85 W5        30.35F WCI   0
MORRIS         CLEAR      9   3  78 NW7       30.30S WCI  -3
ALEXANDRIA     CLEAR      6   2  83 N10       30.25F WCI  -9
ELBOW LAKE     FAIR       6   3  88 NW6       30.31R WCI  -5
WADENA         CLOUDY     1   0  92 W5        30.25S WCI  -8
GLENWOOD       CLEAR      7   1  78 NW6       30.26F WCI  -3
APPLETON         N/A     12   7  79 W7        30.33F WCI   2
BENSON         CLEAR      9   3  78 N8        30.32S WCI  -4
ORTONVILLE     CLEAR     12   7  79 NW7       30.33S WCI   2
MADISON        CLEAR     14  10  85 NW5       30.34F WCI   6
WILLMAR        FAIR      10   7  85 NW7       30.29F WCI   0
$$
MNZ033>034-036-042>043-049>051-058-059-120700-
   Central Minnesota

CITY           SKY/WX    TMP DP  RH WIND       PRES   REMARKS
ST CLOUD       PTCLDY     8   4  83 NW9       30.25R WCI  -5
6HR MIN TEMP:   8; 6HR MAX TEMP:  22;

SAUK CENTRE    FAIR       6   1  82 NW7       30.27S WCI  -6
PAYNESVILLE    CLEAR      8   4  86 NW7       30.27F WCI  -4
AITKIN         CLEAR      3   0  85 NW5       30.21R WCI  -6
PINE RIVER     CLOUDY     3   0  85 NW8       30.26R WCI -10
BRAINERD       PTCLDY     6   0  76 NW7       30.23S WCI  -6
STAPLES        CLOUDY     1  -2  85 NW6       30.24S WCI -10
LONG PRAIRIE   FAIR       5   1  85 W7        30.26S WCI  -7
LITTLE FALLS   CLOUDY     9   0  66 NW7       30.26S WCI  -3
LITCHFIELD     CLEAR     10   7  85 NW10      30.27S WCI  -3
BUFFALO        PTCLDY    12   6  77 NW9G16    30.26S WCI  -1
MAPLE LAKE     PTCLDY    12   7  82 NW9       30.26S WCI  -1
HUTCHINSON     CLOUDY    12   6  76 NW12      30.27S WCI  -2
$$
MNZ037-044-045-052-053-120700-
   East Central Minnesota

CITY           SKY/WX    TMP DP  RH WIND       PRES   REMARKS
PRINCETON      PTCLDY    10   5  79 W7        30.24R WCI   0
MORA           CLEAR     10   5  79 NW10      30.23R WCI  -3
CAMBRIDGE      PTCLDY    12   5  73 NW9       30.23R WCI   0
RUSH CITY      FLURRIES  11   6  79 NW6       30.22R WCI   2
MOOSE LAKE     PTCLDY    10   3  72 N6        30.18R WCI   1
HINCKLEY       FAIR      12   7  79 NW10      30.20R WCI  -1
CLOQUET        CLEAR      7   1  78 NW10G16   30.14S WCI  -8
MCGREGOR       PTCLDY     9   3  78 NW9       30.19S WCI  -5
$$
MNZ071>073-080-081-089-090-097-098-120700-
   Southwest Minnesota

CITY           SKY/WX    TMP DP  RH WIND       PRES   REMARKS
MONTEVIDEO     CLEAR     10   7  85 N10       30.32F WCI  -3
GRANITE FALLS  CLEAR     13   8  81 W9        30.34S WCI   1
CANBY          CLEAR     13  11  91 NW5       30.34F WCI   5
MARSHALL       CLEAR     11   9  92 NW10      30.33F WCI  -3
REDWOOD FALLS  CLEAR     13   3  64 NW12G21   30.29F WCI  -1
OLIVIA         CLEAR     12   9  85 NW9       30.28F WCI   0
PIPESTONE      CLEAR     16  10  79 N8        30.30F WCI   5
WINDOM           N/A     14   1  57 NW20      30.27S WCI  -3
WORTHINGTON    CLEAR     14  10  84 NW14      30.31R WCI  -1
JACKSON        PTCLDY    14   9  79 MISG      30.27S
TRACY          CLEAR     14  11  89 NW13      30.30F WCI   0
SLAYTON        CLEAR     13  10  89 NW13      30.30S WCI  -2
$$
MNZ065>067-074>077-082>085-091>093-120700-
   South Central Minnesota

CITY           SKY/WX    TMP DP  RH WIND       PRES   REMARKS
MANKATO        CLEAR     14   9  80 NW15      30.25R WCI  -1
NEW ULM        CLEAR     10   7  85 NW16      30.27S WCI  -7
ST JAMES       CLEAR     12   9  85 NW15      30.28S WCI  -4
FAIRMONT       CLEAR     13   8  81 NW18      30.27R WCI  -4
GLENCOE        CLEAR     13   8  79 NW13G20   30.25F WCI  -1
FARIBAULT      CLEAR     16  10  79 NW13      30.21S WCI   2
OWATONNA       CLEAR     16  10  79 NW16      30.20R WCI   0
WASECA         CLEAR     14  10  85 NW12      30.23S WCI   0
ALBERT LEA     CLEAR     16  10  79 NW9G18    30.20R WCI   4
$$
MNZ078>079-086>088-094>096-120700-
   Southeast Minnesota

CITY           SKY/WX    TMP DP  RH WIND       PRES   REMARKS
ROCHESTER      CLEAR     16  11  80 NW16      30.14S WCI   1
6HR MIN TEMP:  16; 6HR MAX TEMP:  29;

RED WING       CLEAR     18   7  62 NW9       30.19S WCI   6
STANTON        CLEAR     18  12  77 NW13      30.20S WCI   5
DODGE CENTER   CLEAR     16   9  73 NW13      30.16S WCI   2
WINONA           N/A     21  12  68 N17G23    30.16S WCI   7
AUSTIN         CLEAR     18  12  79 NW12      30.17R WCI   5
PRESTON        CLEAR     17  10  71 N18       30.13R WCI   1
$$
ABBREVIATIONS USED IN REMARKS
   TC - TEMPERATURES IN CELSIUS
  WCI - WIND CHILL INDEX
   HX - HEAT INDEX
  VSB - VISIBILITY
$$




USA.gov is the U.S. government's official web portal to all federal, state and local government web resources and services.